Regional Weather Roundup
Issued by NWS Charleston, SC

Current Version | Previous Version | Graphics & Text | Print | Product List | Glossary On
Versions: 1 2 3 4 5 6 7 8 9 10 11 12 13 14 15 16 17 18 19 20 21 22 23 24 25 26 27 28 29 30 31 32 33 34 35 36 37 38 39 40 41 42 43 44 45 46 47 48 49 50
000 ASUS42 KCHS 261412 RWRCHS REGIONAL WEATHER ROUNDUP NATIONAL WEATHER SERVICE CHARLESTON SC 1000 AM EDT SUN MAR 26 2017 NOTE: "FAIR" INDICATES FEW OR NO CLOUDS BELOW 12,000 FEET WITH NO SIGNIFICANT WEATHER AND/OR OBSTRUCTIONS TO VISIBILITY. NOT ALL STATIONS ARE QUALITY CONTROLLED. USE DATA WITH CAUTION... ESPECIALLY DEWPOINT OBSERVATIONS. SCZ027-030-031-034>040-042>050-261500- ...SOUTHEAST SOUTH CAROLINA... CITY SKY/WX TMP DP RH WIND PRES REMARKS N CHARLESTON MOSUNNY 72 56 57 S9 30.21R WATERFRONT PRK N/A 68 61 78 VRB3 30.19R JOHNS ISLAND FAIR 73 57 56 SE7 30.21R PINOPOLIS N/A 64 59 82 CALM 30.12R MONCKS CORNER FAIR 68 55 64 S5 30.21S SUMMERVILLE FAIR 68 57 68 SE6 30.21S BEAUFORT MCAS MOSUNNY 71 62 73 SE7 30.20R BEAUFORT ARPT FAIR 72 61 68 S7 30.19S HILTON HEAD IS SUNNY 68 61 77 SE6 30.20R WALTERBORO MOSUNNY 68 57 68 S6 30.21R ALLENDALE CLOUDY 64 57 77 S5 30.20R ...SOUTHERN MIDLANDS AND PEE DEE... CITY SKY/WX TMP DP RH WIND PRES REMARKS GEORGETOWN FAIR 70 55 60 CALM 30.23R KINGSTREE FAIR 68 54 60 SE7 30.22S ORANGEBURG PTSUNNY 67 57 70 S6 30.21R BARNWELL PTSUNNY 64 59 82 SE6 30.20S AIKEN FAIR 63 55 77 S9 30.23S MANNING FAIR 68 55 64 S3 30.22R COLUMBIA CLOUDY 62 56 80 E6 30.20R SUMTER MOSUNNY 67 56 67 SE7 30.20R FLORENCE CLOUDY 68 56 65 S8 30.23R MYRTLE BEACH MOSUNNY 70 54 56 S12 30.23S N MYRTLE BEACH MOSUNNY 68 55 63 SE7 30.23R $$ GAZ063-065-086>088-099>101-113>116-118-119-134>141-150-261500- ...SOUTHEAST GEORGIA... CITY SKY/WX TMP DP RH WIND PRES REMARKS SAVANNAH ARPT PTSUNNY 73 59 61 S8 30.19R HUNTER AAF SUNNY 73 63 69 S10G21 30.16R FORT STEWART PTSUNNY 70 60 70 S6 30.17R STATESBORO MOSUNNY 69 63 82 S6 30.20S SYLVANIA CLOUDY N/A N/A N/A SW5 30.21R CLAXTON FAIR N/A N/A N/A CALM 30.19S ...CSRA...CENTRAL AND FAR SOUTHEAST GEORGIA... CITY SKY/WX TMP DP RH WIND PRES REMARKS THOMSON CLOUDY 62 57 83 SW6 30.22R AUGUSTA-BUSH CLOUDY 66 59 78 S5 30.18S AUGUSTA-DANIEL CLOUDY 64 55 72 S6 30.19R SWAINSBORO FAIR 68 61 77 S12 30.19R VIDALIA MOSUNNY 70 61 73 S6 30.18S EASTMAN CLOUDY 68 55 62 S8 30.19R HAZLEHURST FAIR 70 64 80 S5 30.17R ALMA MOSUNNY 69 62 78 S6 30.17R WAYCROSS MOSUNNY 73 65 76 S8 30.17S JESUP PTSUNNY 70 61 73 S5 30.19S BAXLEY FAIR 68 64 88 S7 30.18R BRUNSWICK SUNNY 73 64 73 S6 30.19R SAINT SIMONS SUNNY 71 62 73 SE9 30.18R $$ SCZ027-028-034-036>038-045-046-048>050-GAZ119-141-261500- ...LAKE AND SUPPLEMENTAL COASTAL OBSERVATIONS... STATION/POSITION TIME TEMP WIND PRES WAVE SWELL AIR SEA DIR/SP/G HT/PER HT/PER/DIR (UTC) (F) (DEG/KT/KT) (MB) (FT/S) (FT/S/D) WINYAH BAY 1245 63 140/ 2 1023.0 LAKE MURRAY 1320 60 130/ 1/ 2 1022.0 ACE BASIN NERRS 1245 62 CALM 1022.0 FORT PULASKI 1348 70 62 170/ 7/ 12 1022.5R SAPELO ISLAND 1300 70 150/ 6 1022.0 $$ ANZ835-935-AMZ111-154-330-350-352-354-370-450-454-472-261500- ...C-MAN AND BUOY OBSERVATIONS... STATION/POSITION TIME TEMP WIND PRES WAVE SWELL AIR SEA DIR/SP/G HT/PER HT/PER/DIR (UTC) (F) (DEG/KT/KT) (MB) (FT/S) (FT/S/D) BUOY 41004 1350 72 72 150/ 14/ 16 1022.2F 5/ 6 3/130/ 9 BUOY 41008 1250 65 62 130/ 6/ 8 1021.3 4/ 9 3/120/ 9 FOLLY BEACH CMAN 1300 63 130/ 5/ 5 1023.0R CAPERS NEARSHORE 1308 63 130/ 4/ 8 1022.5R FRIPP NEARSHORE 1308 64 60 130/ 4/ 6 1021.8R STATION/POSITION TIME TEMP WIND PRES WAVE SWELL AIR SEA DIR/SP/G HT/PER HT/PER/DIR (UTC) (F) (DEG/KT/KT) (MB) (FT/S) (FT/S/D) 5E ST. MARYS GA 1330 64 N/A 4/ 9 FRYING PAN BUOY 1350 71 74 130/ 14/ 17 1024.0R 4/ 8 3/140/ 8 BUOY 41025 1350 69 75 170/ 12/ 14 1025.9R 3/ 8 2/160/ 8 CAPE LOOKOUT NC 1300 65 100/ 4/ 4 1024.7R BUOY 41002 1350 67 72 80/ 10/ 14 1025.3R 5/ 9 5/130/ 9 BUOY 41010 NOT AVBL ST AUGUSTINE FL 1400 69 67 130/ 2/ 3 1022.8R $$

USA.gov is the U.S. government's official web portal to all federal, state and local government web resources and services.